Regional Weather Roundup
Issued by NWS

Home | Current Version | Previous Version | Graphics & Text | Print | Product List | Glossary Off
Versions: 1 2 3 4 5 6 7 8 9 10 11 12 13 14 15 16 17 18 19 20 21 22 23 24 25 26 27 28 29 30 31 32 33 34 35 36 37 38 39 40 41 42 43 44 45 46 47 48 49 50

000
ASUS43 KDMX 240901
RWRIA

WEATHER ROUNDUP FOR IOWA
NATIONAL WEATHER SERVICE DES MOINES IA
300 AM CST WED JAN 24 2018

NOTE: "FAIR" INDICATES FEW OR NO CLOUDS BELOW 12,000 FEET WITH NO
SIGNIFICANT WEATHER AND/OR OBSTRUCTIONS TO VISIBILITY.

* - THESE STATIONS ARE NOT NWS STATIONS...THUS NOT UNDER NWS
QUALITY CONTROL.  THEY ALSO DO NOT REPORT WEATHER SUCH
AS PRECIPITATION OR FOG.

IAZ001>003-012>014-020>022-031>034-043>046-241000-
   NORTHWEST IOWA

CITY           SKY/WX    TMP DP  RH WIND       PRES   REMARKS
CARROLL *      CLOUDY    25  23  93 NW13      30.23R WCI  13
CHEROKEE *     CLOUDY    25  24  96 N5        30.23S WCI  19
DENISON *      CLOUDY    23  23 100 N8        30.25S FOG     WCI  14
LE MARS *      FOG       19  19 100 S5        30.24F VSB 1/4 WCI  13
ORANGE CITY *  CLOUDY    23  23 100 NW3       30.22S FOG
SHELDON *      CLOUDY    23  23 100 N5        30.20S WCI  17
SIOUX CITY     FOG       17  14  88 CALM      30.26S VSB 1/4
SPENCER        MIX PCPN  24  21  88 NW7       30.22R WCI  16
STORM LAKE *   CLOUDY    23  23 100 NW9       30.22R FOG     WCI  13
$$

IAZ055>058-069>071-079>083-090>094-241000-
   SOUTHWEST IOWA

CITY           SKY/WX    TMP DP  RH WIND       PRES   REMARKS
ATLANTIC *     CLEAR     16  16 100 CALM      30.24R FOG
AUDUBON *      CLOUDY    21  19  93 CALM      30.23R FOG
CLARINDA *     CLEAR     18  18 100 CALM      30.27R
COUNCIL BLFS * CLEAR     23  23 100 W8        30.24R WCI  14
CRESTON *      PTCLDY    21  21 100 NW3       30.24R FOG
HARLAN  *      PTCLDY    16  16 100 N3        30.28R
LAMONI         CLEAR     23  20  88 W5        30.24R WCI  17
RED OAK *      PTCLDY    18  16  93 CALM      30.25S
SHENANDOAH *   CLEAR     19  19 100 CALM      30.27R
$$

IAZ047>049-059>061-072>074-084-241000-
   CENTRAL IOWA

CITY           SKY/WX    TMP DP  RH WIND       PRES   REMARKS
AMES           CLOUDY    26  24  92 W8        30.24R WCI  18
ANKENY *       CLOUDY    27  23  86 W6        30.26R WCI  20
BOONE *        CLOUDY    25  21  86 NW5       30.22R WCI  19
CHARITON *     CLOUDY    25  23  93 W6        30.24R WCI  18
DES MOINES     CLOUDY    26  21  81 NW7       30.25R WCI  18
GRINNELL*      CLOUDY    25  22  87 W5        30.24R WCI  19
KNOXVILLE *    CLOUDY    27  21  80 NW3       30.23R
MARSHALLTOWN   CLOUDY    24  21  88 W6        30.22S WCI  17
NEWTON *       CLOUDY    25  21  86 CALM      30.24S
PELLA *        CLOUDY    26  22  85 NW3       30.26S
$$

IAZ004>006-015-016-023>025-035-036-241000-
   NORTH CENTRAL IOWA

CITY           SKY/WX    TMP DP  RH WIND       PRES   REMARKS
CLARION *      CLOUDY    23  25 100 W8        30.23R WCI  14
ESTHERVILLE    CLOUDY    22  21  96 NW7       30.20R WCI  13
FORT DODGE *   CLOUDY    23  20  88 NW6       30.23S WCI  16
MASON CITY     CLOUDY    20  17  88 W10       30.23R WCI   9
WEBSTER CITY * CLOUDY    25  21  86 NW8       30.22R WCI  16
IOWA FALLS *     N/A     24  22  91 NW5       30.23R WCI  18
$$

IAZ007>011-017>019-026>030-037>042-050>054-066-241000-
   NORTHEAST IOWA

CITY           SKY/WX    TMP DP  RH WIND       PRES   REMARKS
CEDAR RAPIDS   CLOUDY    24  19  81 NW9       30.22R WCI  14
CHARLES CITY *   N/A     21  21 100 W5        30.21S WCI  15
CLINTON *      CLOUDY    25  21  85 N12       30.23R WCI  14
DECORAH *      CLOUDY    19  18  93 CALM      30.19S
DUBUQUE        CLOUDY    22  17  81 NW8       30.20R WCI  12
MONTICELLO *   CLOUDY    25  19  80 W8        30.21S WCI  16
OELWEIN *      CLOUDY    21  21 100 W6        30.22R WCI  14
WATERLOO         N/A     22  19  89 W6        30.23R WCI  14
$$

IAZ064-065-067-068-078-241000-
   EAST CENTRAL IOWA

CITY           SKY/WX    TMP DP  RH WIND       PRES   REMARKS
DAVENPORT      CLOUDY    25  19  78 NW8       30.24R WCI  16
IOWA CITY      CLOUDY    25  18  74 NW5       30.26R WCI  19
MT. PLEASANT * CLOUDY    27  21  80 NW5       30.24S WCI  21
MUSCATINE *    CLOUDY    27  18  69 NW10      30.26R WCI  17
QUAD CITIES    CLOUDY    26  19  74 NW8       30.23R WCI  18
$$

IAZ062-063-075>077-085>089-095>099-241000-
   SOUTHEAST IOWA

CITY           SKY/WX    TMP DP  RH WIND       PRES   REMARKS
BURLINGTON     CLOUDY    27  19  72 W7        30.24R WCI  19
FAIRFIELD *    CLOUDY    27  19  74 NW6       30.24R WCI  20
FORT MADISON * CLOUDY    27  21  80 W9        30.25S WCI  17
KEOKUK *       CLOUDY    27  21  80 NW6       30.25R WCI  20
OSKALOOSA *    CLOUDY    26  22  84 W8        30.25R WCI  18
OTTUMWA        CLOUDY    26  20  77 W6        30.24R WCI  19
WASHINGTON *   CLOUDY    25  21  86 NW6       30.26R WCI  18
$$

ABBREVIATIONS USED IN REMARKS
   TC - TEMPERATURES IN CELSIUS
  WCI - WIND CHILL INDEX
   HX - HEAT INDEX
  VSB - VISIBILITY
$$




USA.gov is the U.S. government's official web portal to all federal, state and local government web resources and services.